www.pogodaiklimat.ru

Погода и климат >> Архив погоды >> Финляндия >> Салла


ПОГОДА в Салле

  • Прогноз погоды в Салле
  • Монитор погоды в Салле

АРХИВ ПОГОДЫ в Салле

Время (UTC), дата Ветер
(напр.,м/с)
 
Видим.   Явления Облачность Т
(С)
Тd
(С)
f
(%)
Тe
(С)
Тes
(С)
Комфортность P
(гПа)
Po
(гПа)
Тmin
(С)
Tmax
(С)
R
(мм)
R24
(мм)
S
(см)
15 15.09 В 3-5
{5}
20 км ясно +6.2 +0.7 68 +3 +4 995.9 969.4
18 15.09 СВ 3-4
{4}
20 км ясно -0.1 -0.4 98 -5 -5 995.5 968.5 -0.2 +9.1
21 15.09 С 1-2
{3}
20 км ясно -1.3 -1.3 100 -4 -4 994.7 967.6
00 16.09 СЗ 3-4
{5}
20 км 10/10 300 м
[]
+0.6 +0.6 100 -4 -4 993.7 966.7
03 16.09 СЗ 2-3
{4}
12 км 10/0 200 м
[]
+2.4 +2.3 99 -1 -1 993.0 966.2
06 16.09 СЗ 3-4
{4}
20 км слаб. ливневой дождь 10/10 100 м
[]
+3.5 +3.5 100 -1 -1 992.5 965.9 -1.5 +3.5 1
09 16.09 С 2-3
{5}
3200 м слаб. ливневой дождь 10/0 100 м
[]
+5.8 +5.8 100 +3 +5 993.2 966.8 0.1
12 16.09 С 3-5
{8}
20 км 9/9 600 м
[]
+7.4 +6.6 95 +4 +5 994.3 968.0
15 16.09 СЗ 3-4
{6}
20 км 9/9 600 м
[]
+6.8 +5.6 92 +4 +4 995.2 968.8
18 16.09 С 2-4
{4}
20 км 10/10 600 м
[]
+5.9 +5.1 95 +3 +3 995.8 969.3 +3.5 +8.0 0.4
21 16.09 СЗ 3-4
{4}
20 км 10/10 300 м
[]
+5.6 +5.0 96 +2 +2 996.4 969.9
00 17.09 СЗ 1-2
{5}
20 км 10/0 600 м
[]
+5.5 +4.9 96 +4 +4 997.3 970.7
03 17.09 С 3 20 км 10/4 1000 м
[]
+4.7 +3.9 95 +1 +1 998.0 971.3
06 17.09 СВ 3-6
{9}
20 км 10/10 300 м
[]
+5.0 +2.6 84 +2 +2 999.2 972.6 +4.3 +5.9
09 17.09 СВ 3-5
{8}
20 км слаб. ливневой дождь 9/9 600 м
[]
+6.3 +2.6 77 +3 +4 1000.5 973.9
12 17.09 С 4-7
{9}
20 км в посл. час дождь 8/0 1000 м
[]
+7.2 +1.3 66 +4 +5 1001.5 974.9
15 17.09 -5
{8}
20 км 4/0 1500 м
[]
+5.1 +0.3 71 1002.8 976.1
18 17.09 С 2-3
{3}
20 км 1/1 1000 м
[]
-0.6 -1.1 96 -5 -5 1004.4 977.0 -0.6 +7.9
21 17.09 СЗ 2-2
{3}
20 км 9/0
[]
-2.6 -2.7 99 -7 -7 1006.0 978.4
00 18.09 СЗ 2-2
{2}
20 км 5/0
[]
-4.4 -4.6 99 -9 -9 1007.2 979.4
03 18.09 ЮВ 1-1
{2}
20 км 10/0 50 м
[]
-4.7 -4.7 100 -7 -7 1007.9 980.0
06 18.09 З 1-1
{1}
1900 м в посл. час туман 10/10 50 м
[]
-1.9 -1.9 100 -4 -4 1008.4 980.9 -5.6 -0.5
09 18.09 СЗ 4-6
{6}
20 км 4/4 300 м
[]
+4.5 +0.7 76 0 +2 1008.6 981.7
12 18.09 СЗ 3-5
{7}
20 км 8/0 1000 м
[]
+6.2 -0.7 61 +3 +5 1008.9 982.1
15 18.09 СЗ 2-4
{9}
20 км ясно +4.6 -1.2 66 +2 +3 1009.3 982.4
18 18.09 В 1-2
{5}
20 км 3/3 1500 м
[]
-1.6 -2.2 96 -4 -4 1010.5 982.9 -1.9 +7.2
21 18.09 Ю 2-2
{2}
20 км ясно -4.0 -4.2 99 -8 -8 1011.1 983.3
00 19.09 Ю 1-1
{2}
20 км 1/0 100 м
[]
-6.0 -6.3 98 -9 -9 1011.6 983.5
03 19.09 ЮВ 1-2
{2}
20 км 9/9 <50 м
[]
-6.3 -6.6 98 -9 -9 1011.6 983.5
06 19.09 штиль 0
{1}
20 км в посл. час туман 9/9 300 м
[]
-2.2 -2.2 100 -4 -4 1011.4 983.7 -7.1 -1.5
09 19.09 З 3-5
{5}
20 км 9/0 200 м
[]
+2.3 +0.8 90 -2 -1 1011.4 984.2
12 19.09 З 4-7
{8}
20 км 6/1 300 м
[]
+4.3 -1.3 67 0 +1 1011.5 984.4
15 19.09 З 2-4
{6}
20 км ясно +3.2 -1.1 73 0 +1 1011.1 984.0
18 19.09 СЗ 1 20 км в посл. час дождь 9/9 300 м
[]
+0.4 +0.3 99 -2 -2 1011.0 983.5 -2.2 +5.3 0.3
21 19.09 З 3-5
{6}
20 км 8/0
[]
-0.4 -1.0 96 -5 -5 1010.5 983.0
00 20.09 ЮЗ 3-6
{6}
20 км 9/6 1000 м
[]
-0.2 -1.2 93 -5 -5 1009.6 982.1
03 20.09 З 4-7
{7}
20 км 9/8 600 м
[]
-0.2 -1.3 92 -6 -6 1008.2 980.8
06 20.09 З 4 20 км ясно +1.2 -0.4 89 -4 -4 1008.3 981.1 -1.3 +1.2 <0.5
09 20.09 З 5-8
{9}
20 км 3/0 300 м
[]
+4.2 +0.8 79 -1 +1 1008.1 981.2
12 20.09 З 5-9
{10}
20 км 9/0 1000 м
[]
+6.3 -0.7 61 +2 +3 1008.3 981.6
15 20.09 З 3-6
{9}
20 км 10/1 1000 м
[]
+5.5 -1.0 63 +3 +3 1008.3 981.4
18 20.09 З 1 20 км 10/10
[]
+0.7 -1.8 83 -1 -1 1008.8 981.5 +0.7 +7.1
21 20.09 СВ 1-1
{3}
20 км ясно -3.2 -3.4 99 -6 -6 1009.0 981.3
00 21.09 ЮВ 2-2
{2}
20 км 9/0 1500 м
[]
-2.3 -2.5 99 -7 -7 1008.4 980.8
03 21.09 СВ 1-2
{2}
20 км 9/0 600 м
[]
-2.3 -2.5 99 -5 -5 1008.2 980.5
06 21.09 штиль 0 3000 м в посл. час туман 10/8 <50 м
[]
-1.8 -1.8 100 -3 -3 1007.9 980.4 -3.8 +1.5 <0.5
09 21.09 З 3-6
{6}
20 км 5/0
[]
+3.7 -0.1 76 0 +2 1007.4 980.4
12 21.09 З 3-6
{7}
20 км слаб. ливневой дождь 10/0 600 м
[]
+4.1 +0.8 79 +1 +2 1007.8 980.8
15 21.09 З 2-4
{5}
20 км 9/5 600 м
[]
+4.3 -0.2 73 +2 +2 1007.9 980.9
18 21.09 З 2 20 км 1/1 600 м
[]
-0.6 -0.8 99 -5 -5 1009.6 982.1 -1.8 +5.1
21 21.09 СЗ 2-3
{3}
20 км ясно -3.5 -3.6 99 -8 -8 1011.2 983.4
00 22.09 СЗ 3-5
{5}
20 км 10/0 300 м
[]
-0.7 -0.7 100 -6 -6 1012.8 985.3
03 22.09 СЗ 3-5
{5}
20 км 10/0 600 м
[]
0.0 -0.3 98 -5 -5 1014.4 986.9
06 22.09 СЗ 4 20 км 9/9 300 м
[]
+1.0 +0.1 94 -4 -4 1016.2 988.8 -4.4 +1.0 <0.5
09 22.09 СЗ 5-8
{8}
20 км 10/0 300 м
[]
+2.8 +0.1 82 -2 -2 1017.5 990.1

 

Местоположение метеостанции Салла (Финляндия): широта 66.83 долгота 28.67 высота над уровнем моря 215 м.

В архиве по умолчанию представлена погода в Салле за последнюю неделю. Архивные данные за месяц целиком и за предыдущие месяцы, начиная с января 2011 года, Вы можете получить, выбрав интересующий диапазон дат из раскрывающегося списка и нажав кнопку "Ввод!".


*Определитесь, кто Вы:
робот инопланетянин человек

Внимание! Время в таблицах - всемирное. Для получения местного времени необходимо прибавить поправку, которая равна 1 ч.

Смотрите также архив погоды в соседних городах и на ближайших метеорологических станциях:

Погода в Салла Наруска (Финляндия) (43 км)
Погода в Савукоски (Финляндия) (55 км)
Погода в Куусамо Киутаконгас (Финляндия) (58 км)
Погода в Оуланке (Финляндия) (65 км)
Погода в Пюхе (Финляндия) (67 км)
Погода на Аэродроме Кемиярви (Финляндия) (67 км)
Погода в Алакуртти (Мурманская область, Россия) (75 км)
Погода в Куусамо Рука (Финляндия) (76 км)
Погода в Куусамо Рукатунтури (Финляндия) (76 км)
Погода в Аэропорту Куусамо (Финляндия) (96 км)

Пояснения к столбцам:

Ветер - указаны скорость ветра в м/с - средняя за 10 мин, порывы в срок и между сроками (в фигурных скобках) и направление, откуда дует ветер: С - северный, СВ - северо-восточный, В - восточный, ЮВ - юго-восточный, Ю - южный, ЮЗ - юго-западный, З - западный, СЗ - северо-западный.
Видимость - горизонтальная дальность видимости в метрах или километрах. При видимости от 1 до 10 км при отсутствии осадков обычно наблюдается дымка, при ухудшении видимости до 1 км и менее - туман. В сухую погоду видимость может ухудшаться дымом, пылью или мглою.
Явления - указаны атмосферные явления, наблюдавшиеся в срок или в последний час перед сроком; фигурными скобками обозначены явления, наблюдавшиеся между сроками (за 1-3 часа до срока); квадратными скобками обозначены град или гололедные отложения с указанием их диаметра в мм.
Облачность - указаны через наклонную черту общая и нижняя облачность в баллах и высота нижней границы облаков в метрах; квадратными скобками обозначены формы облаков: Ci - перистые, Cs - перисто-слоистые, Cc - перисто-кучевые, Ac - высококучевые, As - высокослоистые, Sc - слоисто-кучевые, Ns - слоисто-дождевые, Cu - кучевые, Cb - кучево-дождевые. Подробнее классификацию облаков см. в Атласе облаков (PDF).
T - Температура воздуха - температура, измеренная на высоте 2 м над землей.
Td - Температура точки росы - температура, при понижении до которой содержащийся в воздухе водяной пар достигнет насыщения.
f - Относительная влажность воздуха - влажноcть воздуха, измеренная на высоте 2 м над землей.
Te - Эффективная температура - температура, которую ощущает одетый по сезону человек в тени. Характеристика душности погоды. При расчете учитывается влияние влажности воздуха и скорости ветра на теплоощущения человека.
Tes - Эффективная температура на солнце - температура, которую ощущает человек, с поправкой на солнечный нагрев. Характеристика знойности погоды. Зависит от высоты солнца над горизонтом, облачности и скорости ветра. Ночью, в пасмурную погоду, а также при ветре 12 м/с и более поправка равна нулю.
P - Атмосферное давление - приведенное к уровню моря атмосферное давление.
Po - Атмосферное давление - измеренное на уровне метеостанции атмосферное давление.
Tmin - Минимальная температура - минимум температуры воздуха на высоте 2 м над землей.
Tmax - Максимальная температура - максимум температуры воздуха на высоте 2 м над землей.
R - Количество осадков - Количество выпавших осадков за период времени, мм. При наведении курсора мыши на число - период времени, за который выпало указанное количество осадков.
R24 - Количество осадков - Количество выпавших осадков за 24 часа, мм.
S - Снежный покров - Высота снежного покрова, см. При наведении курсора мыши на число - состояние снежного покрова и степень покрытия местности в баллах.